User: anonymous   Login
Location: Albany
(35.0000°S, 118.0000°E)
Time: 03:03:05
(UTC-04:00)
Language:

SJ-6B - Orbit

View from above orbital plane
View from above orbital plane
View from above satellite
View from above satellite

Ground track
Ground track

The orbit data is extracted from the following two-line orbital elements,

1 28415U 04035C   16269.12272226  .00000492  00000-0  37562-4 0  9992
2 28415  97.7730 290.5700 0051292 301.4097  58.2118 15.05876672658686
Epoch (UTC): 25 September 2016 02:56:43
Eccentricity: 0.0051292
inclination: 97.7730°
perigee height: 513 km
apogee height: 584 km
right ascension of ascending node: 290.5700°
argument of perigee: 301.4097°
revolutions per day: 15.05876672
mean anomaly at epoch: 58.2118°
orbit number at epoch: 65868

The dashed part of the orbit path shows where the satellite is in the earth's shadow,  

DLR